Weather History for KCVX - November, 2012

Change the Weather History Date:

Tuesday, November 13, 2012

  Actual Average Record
Temperature  
Mean Temperature 33 °F -  
Max Temperature 38 °F 38 °F 59 °F (2005)
Min Temperature 28 °F 30 °F 21 °F (2004)
Degree Days  
Heating Degree Days 32    
Moisture  
Dew Point 23 °F    
Average Humidity 68    
Maximum Humidity 81    
Minimum Humidity 56    
Precipitation  
Precipitation 0.00 in - - ()
Sea Level Pressure  
Sea Level Pressure 30.36 in    
Wind  
Wind Speed 15 mph (WSW)    
Max Wind Speed 25 mph    
Max Gust Speed 32 mph    
Visibility 10 miles    
Events Snow    
Averages and records for this station are not official NWS values.
T = Trace of Precipitation, MM = Missing Value Source: NWS Daily Summary

Daily Weather History Graph

Daily Weather History Graph

Search for Another Location

Airport or City:

Trip Planner

Search our weather history database for the weather conditions in past years. The results will help you decide how hot, cold, wet, or windy it might be!

Date:

Astronomy

Nov. 13, 2012 Rise Set
Actual Time 7:37 AM EST 5:12 PM EST
Civil Twilight 7:05 AM EST 5:44 PM EST
Nautical Twilight 6:29 AM EST 6:20 PM EST
Astronomical Twilight 5:55 AM EST 6:55 PM EST
Moon 7:15 AM EST (11/13) 5:03 PM EST (11/13)
Length of Visible Light 10h 39m
Length of Day
9h 35m
Waning Crescent, 0% of the Moon is Illuminated
Nov 13
Waning Crescent
Nov 13
New
Nov 20
First Quarter
Nov 28
Full
Dec 6
Last Quarter

Hourly Weather History & Observations

Time (EST) Temp. Windchill Dew Point Humidity Pressure Visibility Wind Dir Wind Speed Gust Speed Precip Events Conditions
12:14 AM 31.1 °F 19.3 °F 19.2 °F 61% 30.14 in 10.0 mi West 18.4 mph 26.5 mph N/A Snow Light Snow
12:34 AM 31.3 °F 19.5 °F 17.4 °F 57% 30.15 in 10.0 mi West 18.4 mph 27.6 mph N/A   Overcast
12:55 AM 31.6 °F 18.1 °F 18.0 °F 57% 30.16 in 10.0 mi West 25.3 mph 28.8 mph N/A   Overcast
1:15 AM 31.6 °F 19.3 °F 18.0 °F 57% 30.17 in 10.0 mi West 20.7 mph 27.6 mph N/A   Overcast
1:34 AM 31.6 °F 20.4 °F 17.4 °F 56% 30.17 in 10.0 mi West 17.3 mph 29.9 mph N/A   Overcast
1:54 AM 31.8 °F 19.6 °F 17.6 °F 56% 30.17 in 10.0 mi West 20.7 mph - N/A   Overcast
2:14 AM 32.0 °F 19.5 °F 19.2 °F 59% 30.18 in 10.0 mi West 21.9 mph 25.3 mph N/A   Overcast
2:35 AM 32.0 °F 19.8 °F 20.1 °F 62% 30.19 in 10.0 mi West 20.7 mph 27.6 mph N/A   Overcast
2:55 AM 32.0 °F 20.5 °F 20.1 °F 62% 30.20 in 10.0 mi West 18.4 mph 32.2 mph N/A   Overcast
3:14 AM 32.0 °F 19.8 °F 19.9 °F 61% 30.20 in 10.0 mi West 20.7 mph 29.9 mph N/A   Overcast
3:54 AM 32.2 °F 19.7 °F 21.9 °F 66% 30.21 in 10.0 mi West 21.9 mph 26.5 mph N/A Snow Light Snow
4:15 AM 32.9 °F 21.3 °F 22.1 °F 65% 30.21 in 10.0 mi West 19.6 mph 25.3 mph N/A   Overcast
4:35 AM 32.9 °F 21.0 °F 21.0 °F 62% 30.22 in 10.0 mi West 20.7 mph 25.3 mph N/A   Overcast
4:54 AM 32.9 °F 21.6 °F 22.8 °F 66% 30.23 in 10.0 mi West 18.4 mph 25.3 mph N/A   Overcast
5:15 AM 32.9 °F 21.3 °F 24.4 °F 71% 30.24 in 10.0 mi West 19.6 mph 28.8 mph N/A   Overcast
5:34 AM 32.9 °F 21.3 °F 22.3 °F 65% 30.25 in 10.0 mi West 19.6 mph 24.2 mph N/A   Overcast
5:55 AM 32.9 °F 21.3 °F 23.0 °F 67% 30.26 in 10.0 mi West 19.6 mph 26.5 mph N/A   Overcast
6:14 AM 33.1 °F 21.2 °F 23.7 °F 68% 30.27 in 10.0 mi West 20.7 mph - N/A   Overcast
6:35 AM 33.1 °F 21.5 °F 24.1 °F 70% 30.28 in 10.0 mi West 19.6 mph 23.0 mph N/A   Overcast
7:14 AM 33.8 °F 23.5 °F 24.6 °F 69% 30.30 in 10.0 mi WNW 16.1 mph 21.9 mph N/A   Overcast
7:35 AM 33.8 °F 23.5 °F 24.3 °F 68% 30.30 in 10.0 mi West 16.1 mph 23.0 mph N/A   Overcast
7:54 AM 34.2 °F 23.0 °F 24.6 °F 68% 30.32 in 10.0 mi West 19.6 mph 24.2 mph N/A   Overcast
8:15 AM 34.2 °F 24.4 °F 24.8 °F 69% 30.33 in 10.0 mi West 15.0 mph 20.7 mph N/A   Overcast
8:35 AM 34.3 °F 24.6 °F 24.8 °F 68% 30.34 in 10.0 mi West 15.0 mph 20.7 mph N/A   Scattered Clouds
8:55 AM 35.2 °F 26.2 °F 25.9 °F 69% 30.35 in 10.0 mi West 13.8 mph 19.6 mph N/A   Mostly Cloudy
9:15 AM 35.1 °F 24.8 °F 26.2 °F 70% 30.36 in 10.0 mi West 17.3 mph - N/A   Mostly Cloudy
9:35 AM 35.4 °F 26.4 °F 25.5 °F 67% 30.37 in 10.0 mi West 13.8 mph 19.6 mph N/A   Scattered Clouds
9:55 AM 36.5 °F 28.2 °F 26.1 °F 66% 30.37 in 10.0 mi WNW 12.7 mph - N/A   Scattered Clouds
10:15 AM 35.8 °F 27.3 °F 26.6 °F 69% 30.38 in 10.0 mi WNW 12.7 mph - N/A   Mostly Cloudy
10:35 AM 35.6 °F 27.1 °F 27.1 °F 71% 30.39 in 10.0 mi WNW 12.7 mph 18.4 mph N/A   Mostly Cloudy
10:55 AM 35.2 °F 27.6 °F 27.5 °F 73% 30.39 in 10.0 mi West 10.4 mph - N/A   Overcast
11:15 AM 35.8 °F 27.3 °F 27.5 °F 72% 30.40 in 10.0 mi West 12.7 mph - N/A   Overcast
11:35 AM 35.8 °F 26.1 °F 27.5 °F 72% 30.40 in 10.0 mi West 16.1 mph - N/A   Overcast
11:55 AM 37.0 °F 28.1 °F 28.8 °F 72% 30.40 in 10.0 mi West 15.0 mph - N/A   Overcast
12:15 PM 37.6 °F 30.0 °F 27.1 °F 66% 30.40 in 10.0 mi West 11.5 mph - N/A   Overcast
12:35 PM 38.1 °F 29.8 °F 27.1 °F 65% 30.40 in 10.0 mi West 13.8 mph 20.7 mph N/A   Mostly Cloudy
12:55 PM 36.5 °F 28.2 °F 27.5 °F 70% 30.40 in 10.0 mi WSW 12.7 mph 19.6 mph N/A   Mostly Cloudy
1:15 PM 38.1 °F 30.2 °F 26.4 °F 63% 30.40 in 10.0 mi West 12.7 mph 20.7 mph N/A   Overcast
1:55 PM 36.5 °F 27.4 °F 26.2 °F 66% 30.41 in 10.0 mi WSW 15.0 mph - N/A   Mostly Cloudy
2:15 PM 36.0 °F 28.5 °F 25.5 °F 66% 30.41 in 10.0 mi SW 10.4 mph - N/A   Overcast
2:35 PM 35.8 °F 27.8 °F 25.0 °F 65% 30.41 in 10.0 mi WSW 11.5 mph 17.3 mph N/A   Overcast
2:55 PM 35.2 °F 28.1 °F 24.4 °F 65% 30.42 in 10.0 mi SW 9.2 mph 19.6 mph N/A   Mostly Cloudy
3:15 PM 36.0 °F 28.0 °F 24.4 °F 63% 30.42 in 10.0 mi WSW 11.5 mph 17.3 mph N/A   Mostly Cloudy
3:35 PM 35.8 °F 30.1 °F 23.4 °F 61% 30.42 in 10.0 mi SSW 6.9 mph - N/A   Mostly Cloudy
3:54 PM 35.6 °F 30.7 °F 23.7 °F 62% 30.43 in 10.0 mi SW 5.8 mph - N/A   Scattered Clouds
4:15 PM 35.6 °F 30.7 °F 24.1 °F 63% 30.43 in 10.0 mi SSW 5.8 mph - N/A   Scattered Clouds
4:35 PM 34.9 °F 30.8 °F 23.5 °F 63% 30.43 in 10.0 mi SSW 4.6 mph - N/A   Scattered Clouds
4:55 PM 34.9 °F 29.9 °F 22.6 °F 61% 30.43 in 10.0 mi SSW 5.8 mph - N/A   Scattered Clouds
5:15 PM 33.8 °F 29.6 °F 22.6 °F 64% 30.44 in 10.0 mi South 4.6 mph - N/A   Clear
5:35 PM 33.1 °F 30.0 °F 22.8 °F 66% 30.45 in 10.0 mi South 3.5 mph - N/A   Clear
5:55 PM 32.7 °F 29.6 °F 22.8 °F 67% 30.45 in 10.0 mi South 3.5 mph - N/A   Scattered Clouds
6:15 PM 32.4 °F 29.1 °F 23.0 °F 68% 30.45 in 10.0 mi SSE 3.5 mph - N/A   Clear
6:35 PM 31.6 °F - 23.2 °F 71% 30.46 in 10.0 mi Calm Calm - N/A   Clear
6:55 PM 32.0 °F 28.7 °F 23.0 °F 69% 30.47 in 10.0 mi South 3.5 mph - N/A   Scattered Clouds
7:15 PM 31.8 °F 27.3 °F 23.0 °F 70% 30.47 in 10.0 mi SSE 4.6 mph - N/A   Scattered Clouds
7:35 PM 31.5 °F 26.8 °F 22.6 °F 70% 30.47 in 10.0 mi South 4.6 mph - N/A   Clear
7:55 PM 31.1 °F 27.7 °F 22.6 °F 71% 30.47 in 10.0 mi SSE 3.5 mph - N/A   Clear
8:14 PM 30.7 °F 27.3 °F 22.6 °F 72% 30.47 in 10.0 mi South 3.5 mph - N/A   Clear
8:35 PM 30.2 °F 25.4 °F 22.6 °F 73% 30.48 in 10.0 mi South 4.6 mph - N/A   Clear
8:55 PM 30.2 °F 25.4 °F 22.6 °F 73% 30.48 in 10.0 mi SSE 4.6 mph - N/A   Clear
9:14 PM 29.7 °F 24.7 °F 22.8 °F 76% 30.48 in 10.0 mi SSE 4.6 mph - N/A   Clear
9:35 PM 29.3 °F 24.3 °F 22.8 °F 77% 30.48 in 10.0 mi SSE 4.6 mph - N/A   Clear
9:55 PM 28.9 °F 25.2 °F 22.8 °F 78% 30.48 in 10.0 mi SSE 3.5 mph - N/A   Clear
10:15 PM 28.9 °F 23.9 °F 23.0 °F 78% 30.48 in 10.0 mi SE 4.6 mph - N/A   Scattered Clouds
10:35 PM 28.9 °F 23.9 °F 23.0 °F 78% 30.48 in 10.0 mi SE 4.6 mph - N/A   Scattered Clouds
10:55 PM 28.8 °F 23.7 °F 23.4 °F 80% 30.48 in 10.0 mi SSE 4.6 mph - N/A   Clear
11:15 PM 29.3 °F 24.3 °F 23.9 °F 80% 30.49 in 10.0 mi SE 4.6 mph - N/A   Mostly Cloudy
11:35 PM 30.0 °F 25.2 °F 24.4 °F 80% 30.49 in 10.0 mi SE 4.6 mph - N/A   Overcast
11:53 PM 30.0 °F 25.2 °F 24.8 °F 81% 30.49 in 10.0 mi SSE 4.6 mph - N/A   Overcast